Time,TemperatureF,DewpointF,PressureIn,WindDirection,WindDirectionDegrees,WindSpeedMPH,WindSpeedGustMPH,Humidity,HourlyPrecipIn,Conditions,Clouds,dailyrainin,SoftwareType,DateUTC
2013-01-08 00:04:00,29.0,27.0,-100.00,SW,215,9.0,13.0,92,-99.99,,,-99.99,,2013-01-08 05:04:00,
2013-01-08 00:12:00,29.0,27.0,-100.00,SW,220,6.0,14.0,92,-99.99,,,-99.99,,2013-01-08 05:12:00,
2013-01-08 00:22:00,29.0,27.0,-100.00,SSW,210,9.0,13.0,92,-99.99,,,-99.99,,2013-01-08 05:22:00,
2013-01-08 00:33:00,29.0,27.0,-100.00,SSW,210,8.0,12.0,92,-99.99,,,-99.99,,2013-01-08 05:33:00,
2013-01-08 00:42:00,29.0,27.0,-100.00,SSW,205,10.0,17.0,92,-99.99,,,-99.99,,2013-01-08 05:42:00,
2013-01-08 00:53:00,28.0,26.0,-100.00,SW,230,4.0,12.0,92,-99.99,,,-99.99,,2013-01-08 05:53:00,
2013-01-08 01:02:00,28.0,26.0,-100.00,SSW,205,5.0,9.0,92,-99.99,,,-99.99,,2013-01-08 06:02:00,
2013-01-08 01:12:00,28.0,27.0,-100.00,SSW,210,7.0,11.0,92,-99.99,,,-99.99,,2013-01-08 06:12:00,
2013-01-08 01:22:00,28.0,27.0,-100.00,SW,230,4.0,11.0,92,-99.99,,,-99.99,,2013-01-08 06:22:00,
2013-01-08 01:33:00,28.0,26.0,-100.00,West,260,3.0,7.0,92,-99.99,,,-99.99,,2013-01-08 06:33:00,
2013-01-08 01:42:00,28.0,26.0,-100.00,SW,230,5.0,7.0,92,-99.99,,,-99.99,,2013-01-08 06:42:00,
2013-01-08 01:52:00,28.0,26.0,-100.00,SW,220,4.0,7.0,93,-99.99,,,-99.99,,2013-01-08 06:52:00,
2013-01-08 02:02:00,28.0,26.0,-100.00,SW,225,6.0,9.0,93,-99.99,,,-99.99,,2013-01-08 07:02:00,
2013-01-08 02:12:00,28.0,26.0,-100.00,SW,235,6.0,9.0,93,-99.99,,,-99.99,,2013-01-08 07:12:00,
2013-01-08 02:22:00,28.0,26.0,-100.00,SW,230,6.0,9.0,93,-99.99,,,-99.99,,2013-01-08 07:22:00,
2013-01-08 02:32:00,28.0,26.0,-100.00,SW,235,4.0,9.0,93,-99.99,,,-99.99,,2013-01-08 07:32:00,
2013-01-08 02:42:00,27.0,26.0,-100.00,WSW,255,4.0,7.0,93,-99.99,,,-99.99,,2013-01-08 07:42:00,
2013-01-08 02:52:00,27.0,26.0,-100.00,SW,230,6.0,7.0,93,-99.99,,,-99.99,,2013-01-08 07:52:00,
2013-01-08 03:02:00,27.0,26.0,-100.00,SW,230,5.0,10.0,93,-99.99,,,-99.99,,2013-01-08 08:02:00,
2013-01-08 03:12:00,27.0,26.0,-100.00,SW,220,6.0,9.0,93,-99.99,,,-99.99,,2013-01-08 08:12:00,
2013-01-08 03:22:00,27.0,26.0,-100.00,SW,225,6.0,9.0,93,-99.99,,,-99.99,,2013-01-08 08:22:00,
2013-01-08 03:32:00,27.0,25.0,-100.00,SW,215,4.0,7.0,93,-99.99,,,-99.99,,2013-01-08 08:32:00,
2013-01-08 03:42:00,27.0,26.0,-100.00,SW,225,4.0,7.0,94,-99.99,,,-99.99,,2013-01-08 08:42:00,
2013-01-08 03:52:00,27.0,25.0,-100.00,SW,235,4.0,7.0,94,-99.99,,,-99.99,,2013-01-08 08:52:00,
2013-01-08 04:02:00,27.0,25.0,-100.00,SSW,210,4.0,9.0,94,-99.99,,,-99.99,,2013-01-08 09:02:00,
2013-01-08 04:12:00,27.0,25.0,-100.00,SW,215,6.0,9.0,94,-99.99,,,-99.99,,2013-01-08 09:12:00,
2013-01-08 04:22:00,27.0,25.0,-100.00,SW,220,5.0,7.0,94,-99.99,,,-99.99,,2013-01-08 09:22:00,
2013-01-08 04:32:00,27.0,25.0,-100.00,SW,215,4.0,9.0,94,-99.99,,,-99.99,,2013-01-08 09:32:00,
2013-01-08 04:42:00,27.0,26.0,-100.00,SW,215,6.0,9.0,94,-99.99,,,-99.99,,2013-01-08 09:42:00,
2013-01-08 04:52:00,27.0,26.0,-100.00,SW,215,5.0,9.0,94,-99.99,,,-99.99,,2013-01-08 09:52:00,
2013-01-08 05:02:00,27.0,26.0,-100.00,WSW,250,5.0,9.0,94,-99.99,,,-99.99,,2013-01-08 10:02:00,
2013-01-08 05:12:00,27.0,26.0,-100.00,SW,230,4.0,9.0,94,-99.99,,,-99.99,,2013-01-08 10:12:00,
2013-01-08 05:22:00,27.0,26.0,-100.00,SW,220,6.0,10.0,94,-99.99,,,-99.99,,2013-01-08 10:22:00,
2013-01-08 05:33:00,27.0,26.0,-100.00,SSW,210,4.0,10.0,94,-99.99,,,-99.99,,2013-01-08 10:33:00,
2013-01-08 05:42:00,27.0,26.0,-100.00,SW,220,4.0,9.0,94,-99.99,,,-99.99,,2013-01-08 10:42:00,
2013-01-08 05:52:00,27.0,26.0,-100.00,SW,225,6.0,9.0,94,-99.99,,,-99.99,,2013-01-08 10:52:00,
2013-01-08 06:02:00,27.0,26.0,-100.00,SW,220,4.0,8.0,94,-99.99,,,-99.99,,2013-01-08 11:02:00,
2013-01-08 06:12:00,27.0,25.0,-100.00,SSW,200,4.0,6.0,94,-99.99,,,-99.99,,2013-01-08 11:12:00,
2013-01-08 06:22:00,26.0,25.0,-100.00,SSW,200,4.0,7.0,94,-99.99,,,-99.99,,2013-01-08 11:22:00,
2013-01-08 06:33:00,26.0,25.0,-100.00,SSW,210,4.0,7.0,94,-99.99,,,-99.99,,2013-01-08 11:33:00,
2013-01-08 06:42:00,26.0,25.0,-100.00,SSW,200,6.0,7.0,95,-99.99,,,-99.99,,2013-01-08 11:42:00,
2013-01-08 06:53:00,26.0,25.0,-100.00,SSW,210,6.0,8.0,95,-99.99,,,-99.99,,2013-01-08 11:53:00,
2013-01-08 07:03:00,26.0,25.0,-100.00,SSW,205,4.0,9.0,95,-99.99,,,-99.99,,2013-01-08 12:03:00,
2013-01-08 07:12:00,26.0,25.0,-100.00,SW,215,4.0,9.0,96,-99.99,,,-99.99,,2013-01-08 12:12:00,
2013-01-08 07:22:00,26.0,25.0,-100.00,SW,215,4.0,9.0,96,-99.99,,,-99.99,,2013-01-08 12:22:00,
2013-01-08 07:33:00,26.0,25.0,-100.00,SSW,210,4.0,6.0,96,-99.99,,,-99.99,,2013-01-08 12:33:00,
2013-01-08 07:42:00,26.0,25.0,-100.00,SSW,205,5.0,7.0,96,-99.99,,,-99.99,,2013-01-08 12:42:00,
2013-01-08 07:53:00,26.0,25.0,-100.00,SW,220,4.0,7.0,96,-99.99,,,-99.99,,2013-01-08 12:53:00,
2013-01-08 08:03:00,26.0,25.0,-100.00,SSW,210,4.0,9.0,96,-99.99,,,-99.99,,2013-01-08 13:03:00,
2013-01-08 08:12:00,26.0,25.0,-100.00,SW,215,4.0,7.0,96,-99.99,,,-99.99,,2013-01-08 13:12:00,
2013-01-08 08:22:00,26.0,25.0,-100.00,SW,220,4.0,6.0,96,-99.99,,,-99.99,,2013-01-08 13:22:00,
2013-01-08 08:33:00,26.0,25.0,-100.00,SSW,200,4.0,7.0,96,-99.99,,,-99.99,,2013-01-08 13:33:00,
2013-01-08 08:43:00,26.0,25.0,-100.00,SSW,195,6.0,8.0,96,-99.99,,,-99.99,,2013-01-08 13:43:00,
2013-01-08 08:52:00,26.0,25.0,-100.00,SW,215,4.0,8.0,96,-99.99,,,-99.99,,2013-01-08 13:52:00,
2013-01-08 09:02:00,27.0,26.0,-100.00,SW,215,4.0,6.0,96,-99.99,,,-99.99,,2013-01-08 14:02:00,
2013-01-08 09:12:00,27.0,26.0,-100.00,SSW,205,3.0,7.0,96,-99.99,,,-99.99,,2013-01-08 14:12:00,
2013-01-08 09:23:00,28.0,27.0,-100.00,SW,225,4.0,7.0,96,-99.99,,,-99.99,,2013-01-08 14:23:00,
2013-01-08 09:33:00,28.0,27.0,-100.00,SW,225,4.0,8.0,95,-99.99,,,-99.99,,2013-01-08 14:33:00,
2013-01-08 09:43:00,28.0,27.0,-100.00,SSW,205,6.0,9.0,94,-99.99,,,-99.99,,2013-01-08 14:43:00,
2013-01-08 09:53:00,28.0,27.0,-100.00,SSW,205,6.0,9.0,92,-99.99,,,-99.99,,2013-01-08 14:53:00,
2013-01-08 10:03:00,29.0,28.0,-100.00,SSW,200,3.0,9.0,92,-99.99,,,-99.99,,2013-01-08 15:03:00,
2013-01-08 10:12:00,31.0,28.0,-100.00,SW,220,4.0,10.0,91,-99.99,,,-99.99,,2013-01-08 15:12:00,
2013-01-08 10:22:00,31.0,29.0,-100.00,SW,215,4.0,10.0,89,-99.99,,,-99.99,,2013-01-08 15:22:00,
2013-01-08 10:33:00,32.0,28.0,-100.00,SSW,210,6.0,10.0,86,-99.99,,,-99.99,,2013-01-08 15:33:00,
2013-01-08 10:43:00,33.0,29.0,-100.00,SW,225,6.0,9.0,84,-99.99,,,-99.99,,2013-01-08 15:43:00,
2013-01-08 10:53:00,33.0,29.0,-100.00,SW,230,6.0,12.0,82,-99.99,,,-99.99,,2013-01-08 15:53:00,
2013-01-08 11:03:00,34.0,29.0,-100.00,SW,215,6.0,12.0,80,-99.99,,,-99.99,,2013-01-08 16:03:00,
2013-01-08 11:12:00,35.0,29.0,-100.00,SW,215,7.0,12.0,78,-99.99,,,-99.99,,2013-01-08 16:12:00,
2013-01-08 11:23:00,35.0,29.0,-100.00,SSW,210,7.0,9.0,77,-99.99,,,-99.99,,2013-01-08 16:23:00,
2013-01-08 11:34:00,36.0,29.0,-100.00,SSW,205,6.0,10.0,75,-99.99,,,-99.99,,2013-01-08 16:34:00,
2013-01-08 11:42:00,37.0,29.0,-100.00,West,260,6.0,11.0,74,-99.99,,,-99.99,,2013-01-08 16:42:00,
2013-01-08 11:52:00,36.0,28.0,-100.00,West,260,8.0,14.0,73,-99.99,,,-99.99,,2013-01-08 16:52:00,
2013-01-08 12:03:00,36.0,28.0,-100.00,WSW,250,7.0,14.0,73,-99.99,,,-99.99,,2013-01-08 17:03:00,
2013-01-08 12:13:00,36.0,28.0,-100.00,SW,235,6.0,12.0,72,-99.99,,,-99.99,,2013-01-08 17:13:00,
2013-01-08 12:23:00,36.0,28.0,-100.00,SW,220,7.0,12.0,72,-99.99,,,-99.99,,2013-01-08 17:23:00,
2013-01-08 12:34:00,36.0,28.0,-100.00,SSW,205,5.0,11.0,73,-99.99,,,-99.99,,2013-01-08 17:34:00,
2013-01-08 12:43:00,37.0,29.0,-100.00,SW,235,4.0,10.0,73,-99.99,,,-99.99,,2013-01-08 17:43:00,
2013-01-08 12:53:00,37.0,29.0,-100.00,WSW,245,4.0,10.0,72,-99.99,,,-99.99,,2013-01-08 17:53:00,
2013-01-08 13:04:00,37.0,29.0,-100.00,SW,230,3.0,9.0,72,-99.99,,,-99.99,,2013-01-08 18:04:00,
2013-01-08 13:13:00,37.0,29.0,-100.00,SSW,200,6.0,9.0,71,-99.99,,,-99.99,,2013-01-08 18:13:00,
2013-01-08 13:23:00,37.0,29.0,-100.00,SW,225,4.0,9.0,71,-99.99,,,-99.99,,2013-01-08 18:23:00,
2013-01-08 13:33:00,38.0,29.0,-100.00,SSW,195,6.0,9.0,71,-99.99,,,-99.99,,2013-01-08 18:33:00,
2013-01-08 13:43:00,38.0,29.0,-100.00,SW,215,5.0,9.0,71,-99.99,,,-99.99,,2013-01-08 18:43:00,
2013-01-08 13:53:00,38.0,29.0,-100.00,SW,215,4.0,11.0,70,-99.99,,,-99.99,,2013-01-08 18:53:00,
2013-01-08 14:03:00,38.0,29.0,-100.00,SSW,210,6.0,9.0,70,-99.99,,,-99.99,,2013-01-08 19:03:00,
2013-01-08 14:12:00,38.0,29.0,-100.00,SSW,210,7.0,12.0,70,-99.99,,,-99.99,,2013-01-08 19:12:00,
2013-01-08 14:23:00,38.0,29.0,-100.00,SSW,210,7.0,12.0,70,-99.99,,,-99.99,,2013-01-08 19:23:00,
2013-01-08 14:33:00,38.0,29.0,-100.00,SSW,200,8.0,12.0,69,-99.99,,,-99.99,,2013-01-08 19:33:00,
2013-01-08 14:42:00,38.0,29.0,-100.00,SSW,200,9.0,12.0,69,-99.99,,,-99.99,,2013-01-08 19:42:00,
2013-01-08 14:53:00,38.0,29.0,-100.00,SSW,205,8.0,12.0,69,-99.99,,,-99.99,,2013-01-08 19:53:00,
2013-01-08 15:03:00,39.0,30.0,-100.00,SW,235,6.0,10.0,68,-99.99,,,-99.99,,2013-01-08 20:03:00,
2013-01-08 15:12:00,39.0,30.0,-100.00,SSW,210,7.0,11.0,69,-99.99,,,-99.99,,2013-01-08 20:12:00,
2013-01-08 15:23:00,39.0,30.0,-100.00,SSW,210,8.0,12.0,70,-99.99,,,-99.99,,2013-01-08 20:23:00,
2013-01-08 15:33:00,38.0,30.0,-100.00,SW,215,9.0,12.0,71,-99.99,,,-99.99,,2013-01-08 20:33:00,
2013-01-08 15:43:00,38.0,30.0,-100.00,SSW,200,7.0,10.0,73,-99.99,,,-99.99,,2013-01-08 20:43:00,
2013-01-08 15:53:00,38.0,30.0,-100.00,SSW,200,7.0,10.0,73,-99.99,,,-99.99,,2013-01-08 20:53:00,
2013-01-08 16:03:00,38.0,30.0,-100.00,SSW,205,7.0,12.0,73,-99.99,,,-99.99,,2013-01-08 21:03:00,
2013-01-08 16:13:00,38.0,30.0,-100.00,SW,220,6.0,12.0,73,-99.99,,,-99.99,,2013-01-08 21:13:00,
2013-01-08 16:23:00,38.0,30.0,-100.00,SSW,210,4.0,9.0,72,-99.99,,,-99.99,,2013-01-08 21:23:00,
2013-01-08 16:33:00,39.0,31.0,-100.00,SSW,200,6.0,9.0,71,-99.99,,,-99.99,,2013-01-08 21:33:00,
2013-01-08 16:43:00,39.0,30.0,-100.00,SSW,195,8.0,12.0,71,-99.99,,,-99.99,,2013-01-08 21:43:00,
2013-01-08 16:53:00,39.0,30.0,-100.00,SSW,195,8.0,12.0,71,-99.99,,,-99.99,,2013-01-08 21:53:00,
2013-01-08 17:03:00,39.0,31.0,-100.00,SSW,200,7.0,12.0,71,-99.99,,,-99.99,,2013-01-08 22:03:00,
2013-01-08 17:12:00,39.0,31.0,-100.00,SSW,200,7.0,12.0,71,-99.99,,,-99.99,,2013-01-08 22:12:00,
2013-01-08 17:23:00,38.0,31.0,-100.00,SSW,210,6.0,11.0,74,-99.99,,,-99.99,,2013-01-08 22:23:00,
2013-01-08 17:33:00,38.0,31.0,-100.00,SSW,210,6.0,11.0,74,-99.99,,,-99.99,,2013-01-08 22:33:00,
2013-01-08 17:43:00,38.0,31.0,-100.00,SSW,210,5.0,8.0,76,-99.99,,,-99.99,,2013-01-08 22:43:00,
2013-01-08 17:53:00,37.0,31.0,-100.00,South,190,6.0,9.0,77,-99.99,,,-99.99,,2013-01-08 22:53:00,
2013-01-08 18:03:00,37.0,31.0,-100.00,South,190,4.0,7.0,79,-99.99,,,-99.99,,2013-01-08 23:03:00,
2013-01-08 18:13:00,37.0,31.0,-100.00,SSW,195,5.0,7.0,80,-99.99,,,-99.99,,2013-01-08 23:13:00,
2013-01-08 18:22:00,36.0,31.0,-100.00,SSW,200,4.0,6.0,81,-99.99,,,-99.99,,2013-01-08 23:22:00,
2013-01-08 18:33:00,36.0,31.0,-100.00,SSW,210,4.0,7.0,82,-99.99,,,-99.99,,2013-01-08 23:33:00,
2013-01-08 18:43:00,36.0,31.0,-100.00,SSW,205,4.0,7.0,83,-99.99,,,-99.99,,2013-01-08 23:43:00,
2013-01-08 18:52:00,36.0,31.0,-100.00,SSW,195,4.0,7.0,83,-99.99,,,-99.99,,2013-01-08 23:52:00,
2013-01-08 19:03:00,35.0,31.0,-100.00,SSW,200,4.0,7.0,84,-99.99,,,-99.99,,2013-01-09 00:03:00,
2013-01-08 19:12:00,35.0,31.0,-100.00,South,190,4.0,6.0,85,-99.99,,,-99.99,,2013-01-09 00:12:00,
2013-01-08 19:22:00,35.0,31.0,-100.00,SSW,205,4.0,7.0,86,-99.99,,,-99.99,,2013-01-09 00:22:00,
2013-01-08 19:33:00,35.0,31.0,-100.00,SSW,195,4.0,6.0,86,-99.99,,,-99.99,,2013-01-09 00:33:00,
2013-01-08 19:42:00,34.0,31.0,-100.00,SSW,210,3.0,6.0,87,-99.99,,,-99.99,,2013-01-09 00:42:00,
2013-01-08 19:52:00,34.0,31.0,-100.00,South,190,4.0,6.0,88,-99.99,,,-99.99,,2013-01-09 00:52:00,
2013-01-08 20:02:00,34.0,31.0,-100.00,South,190,4.0,6.0,88,-99.99,,,-99.99,,2013-01-09 01:02:00,
2013-01-08 20:12:00,34.0,31.0,-100.00,SW,220,3.0,6.0,89,-99.99,,,-99.99,,2013-01-09 01:12:00,
2013-01-08 20:22:00,34.0,31.0,-100.00,South,185,4.0,6.0,90,-99.99,,,-99.99,,2013-01-09 01:22:00,
2013-01-08 20:33:00,34.0,31.0,-100.00,South,190,4.0,7.0,91,-99.99,,,-99.99,,2013-01-09 01:33:00,
2013-01-08 20:42:00,34.0,31.0,-100.00,SSW,200,4.0,6.0,91,-99.99,,,-99.99,,2013-01-09 01:42:00,
2013-01-08 20:52:00,34.0,31.0,-100.00,SSW,200,4.0,6.0,91,-99.99,,,-99.99,,2013-01-09 01:52:00,
2013-01-08 21:02:00,33.0,31.0,-100.00,South,185,4.0,6.0,91,-99.99,,,-99.99,,2013-01-09 02:02:00,
2013-01-08 21:12:00,33.0,31.0,-100.00,South,190,3.0,6.0,92,-99.99,,,-99.99,,2013-01-09 02:12:00,
2013-01-08 21:22:00,33.0,31.0,-100.00,South,190,4.0,6.0,92,-99.99,,,-99.99,,2013-01-09 02:22:00,
2013-01-08 21:33:00,33.0,31.0,-100.00,SSW,195,5.0,9.0,92,-99.99,,,-99.99,,2013-01-09 02:33:00,
2013-01-08 21:43:00,33.0,32.0,-100.00,SSW,195,4.0,8.0,93,-99.99,,,-99.99,,2013-01-09 02:43:00,
2013-01-08 21:52:00,33.0,32.0,-100.00,SSW,205,3.0,8.0,92,-99.99,,,-99.99,,2013-01-09 02:52:00,
2013-01-08 22:03:00,33.0,31.0,-100.00,SSW,195,4.0,6.0,92,-99.99,,,-99.99,,2013-01-09 03:03:00,
2013-01-08 22:12:00,33.0,32.0,-100.00,SSW,210,3.0,6.0,93,-99.99,,,-99.99,,2013-01-09 03:12:00,
2013-01-08 22:22:00,33.0,32.0,-100.00,SW,220,4.0,6.0,93,-99.99,,,-99.99,,2013-01-09 03:22:00,
2013-01-08 22:33:00,33.0,32.0,-100.00,SSW,210,4.0,6.0,93,-99.99,,,-99.99,,2013-01-09 03:33:00,
2013-01-08 22:43:00,33.0,32.0,-100.00,South,190,3.0,6.0,93,-99.99,,,-99.99,,2013-01-09 03:43:00,
2013-01-08 22:52:00,33.0,31.0,-100.00,South,185,4.0,6.0,93,-99.99,,,-99.99,,2013-01-09 03:52:00,
2013-01-08 23:02:00,33.0,31.0,-100.00,SSW,195,3.0,6.0,93,-99.99,,,-99.99,,2013-01-09 04:02:00,
2013-01-08 23:12:00,33.0,31.0,-100.00,South,185,4.0,6.0,93,-99.99,,,-99.99,,2013-01-09 04:12:00,
2013-01-08 23:22:00,33.0,31.0,-100.00,SSW,200,6.0,7.0,94,-99.99,,,-99.99,,2013-01-09 04:22:00,
2013-01-08 23:33:00,33.0,31.0,-100.00,South,185,4.0,7.0,94,-99.99,,,-99.99,,2013-01-09 04:33:00,
2013-01-08 23:42:00,33.0,32.0,-100.00,SSW,195,4.0,9.0,94,-99.99,,,-99.99,,2013-01-09 04:42:00,
2013-01-08 23:52:00,33.0,32.0,-100.00,SSW,200,6.0,7.0,94,-99.99,,,-99.99,,2013-01-09 04:52:00,